Year,Month,Day,Hour,Minute,Value (Times are PST for temperature in C)
2016,07,22,00,00,17.30
2016,07,22,00,01,17.30
2016,07,22,00,02,17.20
2016,07,22,00,03,17.20
2016,07,22,00,04,17.20
2016,07,22,00,05,17.20
2016,07,22,00,06,17.20
2016,07,22,00,07,17.20
2016,07,22,00,08,17.20
2016,07,22,00,09,17.20
2016,07,22,00,10,17.20
2016,07,22,00,11,17.30
2016,07,22,00,12,17.30
2016,07,22,00,13,17.30
2016,07,22,00,14,17.30
2016,07,22,00,15,17.30
2016,07,22,00,16,17.30
2016,07,22,00,17,17.30
2016,07,22,00,18,17.30
2016,07,22,00,19,17.30
2016,07,22,00,20,17.40
2016,07,22,00,21,17.40
2016,07,22,00,22,17.40
2016,07,22,00,23,17.50
2016,07,22,00,24,17.50
2016,07,22,00,25,17.60
2016,07,22,00,26,17.60
2016,07,22,00,27,17.60
2016,07,22,00,28,17.70
2016,07,22,00,29,17.70
2016,07,22,00,30,17.80
2016,07,22,00,31,17.80
2016,07,22,00,32,17.80
2016,07,22,00,33,17.80
2016,07,22,00,34,17.80
2016,07,22,00,35,17.80
2016,07,22,00,36,17.70
2016,07,22,00,37,17.70
2016,07,22,00,38,17.70
2016,07,22,00,39,17.70
2016,07,22,00,40,17.70
2016,07,22,00,41,17.70
2016,07,22,00,42,17.70
2016,07,22,00,43,17.70
2016,07,22,00,44,17.60
2016,07,22,00,45,17.60
2016,07,22,00,46,17.60
2016,07,22,00,47,17.60
2016,07,22,00,48,17.50
2016,07,22,00,49,17.50
2016,07,22,00,50,17.40
2016,07,22,00,51,17.40
2016,07,22,00,52,17.40
2016,07,22,00,53,17.30
2016,07,22,00,54,17.30
2016,07,22,00,55,17.30
2016,07,22,00,56,17.30
2016,07,22,00,57,17.30
2016,07,22,00,58,17.30
2016,07,22,00,59,17.20
2016,07,22,01,00,17.20
2016,07,22,01,01,17.20
2016,07,22,01,02,17.20
2016,07,22,01,03,17.20
2016,07,22,01,04,17.10
2016,07,22,01,05,17.10
2016,07,22,01,06,17.10
2016,07,22,01,07,17.10
2016,07,22,01,08,17.10
2016,07,22,01,09,17.10
2016,07,22,01,10,17.10
2016,07,22,01,11,17.10
2016,07,22,01,12,17.10
2016,07,22,01,13,17.10
2016,07,22,01,14,17.10
2016,07,22,01,15,17.10
2016,07,22,01,16,17.20
2016,07,22,01,17,17.20
2016,07,22,01,18,17.20
2016,07,22,01,19,17.20
2016,07,22,01,20,17.20
2016,07,22,01,21,17.20
2016,07,22,01,22,17.20
2016,07,22,01,23,17.20
2016,07,22,01,24,17.20
2016,07,22,01,25,17.20
2016,07,22,01,26,17.20
2016,07,22,01,27,17.20
2016,07,22,01,28,17.20
2016,07,22,01,29,17.20
2016,07,22,01,30,17.20
2016,07,22,01,31,17.20
2016,07,22,01,32,17.20
2016,07,22,01,33,17.20
2016,07,22,01,34,17.20
2016,07,22,01,35,17.20
2016,07,22,01,36,17.20
2016,07,22,01,37,17.20
2016,07,22,01,38,17.20
2016,07,22,01,39,17.20
2016,07,22,01,40,17.10
2016,07,22,01,41,17.10
2016,07,22,01,42,17.10
2016,07,22,01,43,17.10
2016,07,22,01,44,17.00
2016,07,22,01,45,17.00
2016,07,22,01,46,16.90
2016,07,22,01,47,16.90
2016,07,22,01,48,16.90
2016,07,22,01,49,16.90
2016,07,22,01,50,16.80
2016,07,22,01,51,16.80
2016,07,22,01,52,16.80
2016,07,22,01,53,16.80
2016,07,22,01,54,16.80
2016,07,22,01,55,16.80
2016,07,22,01,56,16.80
2016,07,22,01,57,16.80
2016,07,22,01,58,16.70
2016,07,22,01,59,16.70
2016,07,22,02,00,16.70
2016,07,22,02,01,16.70
2016,07,22,02,02,16.70
2016,07,22,02,03,16.70
2016,07,22,02,04,16.70
2016,07,22,02,05,16.70
2016,07,22,02,06,16.60
2016,07,22,02,07,16.60
2016,07,22,02,08,16.60
2016,07,22,02,09,16.60
2016,07,22,02,10,16.60
2016,07,22,02,11,16.60
2016,07,22,02,12,16.60
2016,07,22,02,13,16.60
2016,07,22,02,14,16.60
2016,07,22,02,15,16.60
2016,07,22,02,16,16.60
2016,07,22,02,17,16.60
2016,07,22,02,18,16.60
2016,07,22,02,19,16.60
2016,07,22,02,20,16.60
2016,07,22,02,21,16.60
2016,07,22,02,22,16.60
2016,07,22,02,23,16.60
2016,07,22,02,24,16.60
2016,07,22,02,25,16.60
2016,07,22,02,26,16.60
2016,07,22,02,27,16.60
2016,07,22,02,28,16.60
2016,07,22,02,29,16.60
2016,07,22,02,30,16.60
2016,07,22,02,31,16.60
2016,07,22,02,32,16.60
2016,07,22,02,33,16.60
2016,07,22,02,34,16.60
2016,07,22,02,35,16.60
2016,07,22,02,36,16.60
2016,07,22,02,37,16.60
2016,07,22,02,38,16.60
2016,07,22,02,39,16.50
2016,07,22,02,40,16.50
2016,07,22,02,41,16.50
2016,07,22,02,42,16.50
2016,07,22,02,43,16.40
2016,07,22,02,44,16.40
2016,07,22,02,45,16.40
2016,07,22,02,46,16.30
2016,07,22,02,47,16.30
2016,07,22,02,48,16.30
2016,07,22,02,49,16.30
2016,07,22,02,50,16.20
2016,07,22,02,51,16.20
2016,07,22,02,52,16.20
2016,07,22,02,53,16.20
2016,07,22,02,54,16.10
2016,07,22,02,55,16.10
2016,07,22,02,56,16.10
2016,07,22,02,57,16.10
2016,07,22,02,58,16.00
2016,07,22,02,59,16.00
2016,07,22,03,00,16.00
2016,07,22,03,01,15.90
2016,07,22,03,02,15.90
2016,07,22,03,03,15.90
2016,07,22,03,04,15.80
2016,07,22,03,05,15.80
2016,07,22,03,06,15.80
2016,07,22,03,07,15.80
2016,07,22,03,08,15.80
2016,07,22,03,09,15.80
2016,07,22,03,10,15.70
2016,07,22,03,11,15.70
2016,07,22,03,12,15.70
2016,07,22,03,13,15.70
2016,07,22,03,14,15.70
2016,07,22,03,15,15.70
2016,07,22,03,16,15.70
2016,07,22,03,17,15.70
2016,07,22,03,18,15.70
2016,07,22,03,19,15.70
2016,07,22,03,20,15.70
2016,07,22,03,21,15.70
2016,07,22,03,22,15.70
2016,07,22,03,23,15.70
2016,07,22,03,24,15.70
2016,07,22,03,25,15.70
2016,07,22,03,26,15.70
2016,07,22,03,27,15.70
2016,07,22,03,28,15.60
2016,07,22,03,29,15.60
2016,07,22,03,30,15.60
2016,07,22,03,31,15.70
2016,07,22,03,32,15.60
2016,07,22,03,33,15.60
2016,07,22,03,34,15.60
2016,07,22,03,35,15.60
2016,07,22,03,36,15.60
2016,07,22,03,37,15.60
2016,07,22,03,38,15.60
2016,07,22,03,39,15.60
2016,07,22,03,40,15.60
2016,07,22,03,41,15.60
2016,07,22,03,42,15.60
2016,07,22,03,43,15.60
2016,07,22,03,44,15.60
2016,07,22,03,45,15.60
2016,07,22,03,46,15.60
2016,07,22,03,47,15.60
2016,07,22,03,48,15.60
2016,07,22,03,49,15.60
2016,07,22,03,50,15.60
2016,07,22,03,51,15.60
2016,07,22,03,52,15.60
2016,07,22,03,53,15.60
2016,07,22,03,54,15.60
2016,07,22,03,55,15.60
2016,07,22,03,56,15.60
2016,07,22,03,57,15.60
2016,07,22,03,58,15.60
2016,07,22,03,59,15.60
2016,07,22,04,00,15.60
2016,07,22,04,01,15.60
2016,07,22,04,02,15.60
2016,07,22,04,03,15.70
2016,07,22,05,04,16.50
2016,07,22,05,05,16.60
2016,07,22,05,06,16.60
2016,07,22,05,07,16.60
2016,07,22,05,08,16.60
2016,07,22,05,09,16.60
2016,07,22,05,10,16.70
2016,07,22,05,11,16.70
2016,07,22,05,12,16.70
2016,07,22,05,13,16.70
2016,07,22,05,14,16.70
2016,07,22,05,15,16.70
2016,07,22,05,16,16.70
2016,07,22,05,17,16.70
2016,07,22,05,18,16.70
2016,07,22,05,19,16.60
2016,07,22,05,20,16.60
2016,07,22,05,21,16.60
2016,07,22,05,22,16.60
2016,07,22,05,23,16.60
2016,07,22,05,24,16.60
2016,07,22,05,25,16.50
2016,07,22,05,26,16.50
2016,07,22,05,27,16.50
2016,07,22,05,28,16.50
2016,07,22,05,29,16.50
2016,07,22,05,30,16.50
2016,07,22,05,31,16.40
2016,07,22,05,32,16.40
2016,07,22,05,33,16.40
2016,07,22,05,34,16.40
2016,07,22,05,35,16.40
2016,07,22,05,36,16.40
2016,07,22,05,37,16.40
2016,07,22,05,38,16.30
2016,07,22,05,39,16.30
2016,07,22,05,40,16.30
2016,07,22,05,41,16.30
2016,07,22,05,42,16.20
2016,07,22,05,43,16.20
2016,07,22,05,44,16.20
2016,07,22,05,45,16.10
2016,07,22,05,46,16.10
2016,07,22,05,47,16.10
2016,07,22,05,48,16.00
2016,07,22,05,49,16.00
2016,07,22,05,50,15.90
2016,07,22,05,51,15.90
2016,07,22,05,52,15.90
2016,07,22,05,53,15.80
2016,07,22,05,54,15.80
2016,07,22,05,55,15.80
2016,07,22,05,56,15.80
2016,07,22,05,57,15.70
2016,07,22,05,58,15.70
2016,07,22,05,59,15.70
2016,07,22,06,00,15.70
2016,07,22,06,01,15.60
2016,07,22,06,02,15.60
2016,07,22,06,03,15.60
2016,07,22,06,04,15.60
2016,07,22,06,05,15.50
2016,07,22,06,06,15.50
2016,07,22,06,07,15.50
2016,07,22,06,08,15.40
2016,07,22,06,09,15.40
2016,07,22,06,10,15.40
2016,07,22,06,11,15.40
2016,07,22,06,12,15.40
2016,07,22,06,13,15.40
2016,07,22,06,14,15.40
2016,07,22,06,15,15.30
2016,07,22,06,16,15.30
2016,07,22,06,17,15.30
2016,07,22,06,18,15.30
2016,07,22,06,19,15.30
2016,07,22,06,20,15.30
2016,07,22,06,21,15.20
2016,07,22,06,22,15.20
2016,07,22,06,23,15.20
2016,07,22,06,24,15.10
2016,07,22,06,25,15.10
2016,07,22,06,26,15.10
2016,07,22,06,27,15.10
2016,07,22,06,28,15.10
2016,07,22,06,29,15.10
2016,07,22,06,30,15.00
2016,07,22,06,31,15.00
2016,07,22,06,32,15.00
2016,07,22,06,33,15.00
2016,07,22,06,34,15.00
2016,07,22,06,35,15.00
2016,07,22,06,36,14.90
2016,07,22,06,37,14.90
2016,07,22,06,38,14.90
2016,07,22,06,39,14.90
2016,07,22,06,40,14.90
2016,07,22,06,41,14.90
2016,07,22,06,42,14.90
2016,07,22,06,43,14.90
2016,07,22,06,44,14.90
2016,07,22,06,45,14.90
2016,07,22,06,46,14.90
2016,07,22,06,47,14.90
2016,07,22,06,48,14.90
2016,07,22,06,49,14.90
2016,07,22,06,50,14.90
2016,07,22,06,51,14.80
2016,07,22,06,52,14.80
2016,07,22,06,53,14.90
2016,07,22,06,54,14.90
2016,07,22,06,55,14.90
2016,07,22,06,56,14.90
2016,07,22,06,57,14.90
2016,07,22,06,58,14.90
2016,07,22,06,59,14.90
2016,07,22,07,00,15.00
2016,07,22,07,01,15.00
2016,07,22,07,02,15.00
2016,07,22,07,03,15.00
2016,07,22,07,04,15.10
2016,07,22,07,05,15.10
2016,07,22,07,06,15.10
2016,07,22,07,07,15.20
2016,07,22,07,08,15.20
2016,07,22,07,09,15.30
2016,07,22,07,10,15.30
2016,07,22,07,11,15.30
2016,07,22,07,12,15.30
2016,07,22,07,13,15.30
2016,07,22,07,14,15.40
2016,07,22,07,15,15.40
2016,07,22,07,16,15.40
2016,07,22,07,17,15.50
2016,07,22,07,18,15.50
2016,07,22,07,19,15.60
2016,07,22,07,20,15.60
2016,07,22,07,21,15.70
2016,07,22,07,22,15.70
2016,07,22,07,23,15.80
2016,07,22,07,24,15.90
2016,07,22,07,25,15.90
2016,07,22,07,26,16.00
2016,07,22,07,27,16.00
2016,07,22,07,28,16.00
2016,07,22,07,29,16.10
2016,07,22,07,30,16.10
2016,07,22,07,31,16.10
2016,07,22,07,32,16.20
2016,07,22,07,33,16.20
2016,07,22,07,34,16.20
2016,07,22,07,35,16.20
2016,07,22,07,36,16.20
2016,07,22,07,37,16.30
2016,07,22,07,38,16.30
2016,07,22,07,39,16.30
2016,07,22,07,40,16.30
2016,07,22,07,41,16.40
2016,07,22,07,42,16.40
2016,07,22,07,43,16.40
2016,07,22,07,44,16.40
2016,07,22,07,45,16.40
2016,07,22,07,46,16.40
2016,07,22,07,47,16.40
2016,07,22,07,48,16.40
2016,07,22,07,49,16.40
2016,07,22,07,50,16.40
2016,07,22,07,51,16.40
2016,07,22,07,52,16.40
2016,07,22,07,53,16.40
2016,07,22,07,54,16.40
2016,07,22,07,55,16.40
2016,07,22,07,56,16.40
2016,07,22,07,57,16.40
2016,07,22,07,58,16.40
2016,07,22,07,59,16.50
2016,07,22,08,00,16.50
2016,07,22,08,01,16.50
2016,07,22,08,02,16.40
2016,07,22,08,03,16.50
2016,07,22,08,04,16.40
2016,07,22,08,05,16.40
2016,07,22,08,06,16.50
2016,07,22,08,07,16.50
2016,07,22,08,08,16.50
2016,07,22,08,09,16.50
2016,07,22,08,10,16.50
2016,07,22,08,11,16.50
2016,07,22,08,12,16.50
2016,07,22,08,13,16.50
2016,07,22,08,14,16.60
2016,07,22,08,15,16.60
2016,07,22,08,16,16.60
2016,07,22,08,17,16.70
2016,07,22,08,18,16.70
2016,07,22,08,19,16.70
2016,07,22,08,20,16.70
2016,07,22,08,21,16.70
2016,07,22,08,22,16.70
2016,07,22,08,23,16.70
2016,07,22,08,24,16.70
2016,07,22,08,25,16.70
2016,07,22,08,26,16.80
2016,07,22,08,27,16.80
2016,07,22,08,28,16.80
2016,07,22,08,29,16.90
2016,07,22,08,30,16.90
2016,07,22,08,31,16.90
2016,07,22,08,32,16.90
2016,07,22,08,33,17.00
2016,07,22,08,34,17.00
2016,07,22,08,35,17.00
2016,07,22,08,36,17.10
2016,07,22,08,37,17.10
2016,07,22,08,38,17.10
2016,07,22,08,39,17.10
2016,07,22,08,40,17.10
2016,07,22,08,41,17.20
2016,07,22,08,42,17.20
2016,07,22,08,43,17.30
2016,07,22,08,44,17.30
2016,07,22,08,45,17.40
2016,07,22,08,46,17.40
2016,07,22,08,47,17.40
2016,07,22,08,48,17.40
2016,07,22,08,49,17.30
2016,07,22,08,50,17.30
2016,07,22,08,51,17.30
2016,07,22,08,52,17.20
2016,07,22,08,53,17.20
2016,07,22,08,54,17.20
2016,07,22,08,55,17.20
2016,07,22,08,56,17.20
2016,07,22,08,57,17.20
2016,07,22,08,58,17.20
2016,07,22,08,59,17.20
2016,07,22,09,00,17.20
2016,07,22,09,01,17.20
2016,07,22,09,02,17.20
2016,07,22,09,03,17.20
2016,07,22,09,04,17.20
2016,07,22,09,05,17.20
2016,07,22,09,06,17.20
2016,07,22,09,07,17.10
2016,07,22,09,08,17.10
2016,07,22,09,09,17.10
2016,07,22,09,10,17.00
2016,07,22,09,11,17.00
2016,07,22,09,12,17.00
2016,07,22,09,13,17.00
2016,07,22,09,14,17.00
2016,07,22,09,15,17.10
2016,07,22,09,16,17.10
2016,07,22,09,17,17.20
2016,07,22,09,18,17.30
2016,07,22,09,19,17.40
2016,07,22,09,20,17.50
2016,07,22,09,21,17.60
2016,07,22,09,22,17.60
2016,07,22,09,23,17.60
2016,07,22,09,24,17.70
2016,07,22,09,25,17.70
2016,07,22,09,26,17.70
2016,07,22,09,27,17.80
2016,07,22,09,28,17.80
2016,07,22,09,29,17.80
2016,07,22,09,30,17.90
2016,07,22,09,31,17.90
2016,07,22,09,32,18.00
2016,07,22,09,33,18.00
2016,07,22,09,34,18.10
2016,07,22,09,35,18.10
2016,07,22,09,36,18.10
2016,07,22,09,37,18.20
2016,07,22,09,38,18.20
2016,07,22,09,39,18.20
2016,07,22,09,40,18.20
2016,07,22,09,41,18.20
2016,07,22,09,42,18.20
2016,07,22,09,43,18.20
2016,07,22,09,44,18.20
2016,07,22,09,45,18.20
2016,07,22,09,46,18.20
2016,07,22,09,47,18.20
2016,07,22,09,48,18.20
2016,07,22,09,49,18.20
2016,07,22,09,50,18.20
2016,07,22,09,51,18.20
2016,07,22,09,52,18.30
2016,07,22,09,53,18.30
2016,07,22,09,54,18.40
2016,07,22,09,55,18.40
2016,07,22,09,56,18.30
2016,07,22,09,57,18.30
2016,07,22,09,58,18.30
2016,07,22,09,59,18.30
2016,07,22,10,00,18.40
2016,07,22,10,01,18.40
2016,07,22,10,02,18.40
2016,07,22,10,03,18.40
2016,07,22,10,04,18.40
2016,07,22,10,05,18.40
2016,07,22,10,06,18.40
2016,07,22,10,07,18.40
2016,07,22,10,08,18.40
2016,07,22,10,09,18.40
2016,07,22,10,10,18.40
2016,07,22,10,11,18.40
2016,07,22,10,12,18.40
2016,07,22,10,13,18.50
2016,07,22,10,14,18.50
2016,07,22,10,15,18.60
2016,07,22,10,16,18.60
2016,07,22,10,17,18.60
2016,07,22,10,18,18.60
2016,07,22,10,19,18.70
2016,07,22,10,20,18.70
2016,07,22,10,21,18.70
2016,07,22,10,22,18.70
2016,07,22,10,23,18.70
2016,07,22,10,24,18.80
2016,07,22,10,25,18.90
2016,07,22,10,26,19.00
2016,07,22,10,27,19.00
2016,07,22,10,28,19.00
2016,07,22,10,29,19.00
2016,07,22,10,30,18.90
2016,07,22,10,31,18.90
2016,07,22,10,32,18.80
2016,07,22,10,33,18.80
2016,07,22,10,34,18.80
2016,07,22,10,35,18.80
2016,07,22,10,36,18.80
2016,07,22,10,37,18.80
2016,07,22,10,38,18.90
2016,07,22,10,39,18.90
2016,07,22,10,40,18.90
2016,07,22,10,41,18.90
2016,07,22,10,42,19.00
2016,07,22,10,43,19.00
2016,07,22,10,44,19.10
2016,07,22,10,45,19.10
2016,07,22,10,46,19.20
2016,07,22,10,47,19.20
2016,07,22,10,48,19.20
2016,07,22,10,49,19.10
2016,07,22,10,50,19.10
2016,07,22,10,51,19.10
2016,07,22,10,52,19.10
2016,07,22,10,53,19.10
2016,07,22,10,54,19.20
2016,07,22,10,55,19.20
2016,07,22,10,56,19.20
2016,07,22,10,57,19.30
2016,07,22,10,58,19.40
2016,07,22,10,59,19.40
2016,07,22,11,00,19.40
2016,07,22,11,01,19.40
2016,07,22,11,02,19.40
2016,07,22,11,03,19.50
2016,07,22,11,04,19.50
2016,07,22,11,05,19.60
2016,07,22,11,06,19.70
2016,07,22,11,07,19.70
2016,07,22,11,08,19.80
2016,07,22,11,09,19.80
2016,07,22,11,10,19.80
2016,07,22,11,11,19.80
2016,07,22,11,12,19.90
2016,07,22,11,13,19.80
2016,07,22,11,14,19.80
2016,07,22,11,15,19.90
2016,07,22,11,16,19.90
2016,07,22,11,17,19.90
2016,07,22,11,18,20.00
2016,07,22,11,19,20.00
2016,07,22,11,20,19.90
2016,07,22,11,21,20.00
2016,07,22,11,22,20.10
2016,07,22,11,23,20.10
2016,07,22,11,24,20.20
2016,07,22,11,25,20.20
2016,07,22,11,26,20.20
2016,07,22,11,27,20.20
2016,07,22,11,28,20.20
2016,07,22,11,29,20.30
2016,07,22,11,30,20.30
2016,07,22,11,31,20.40
2016,07,22,11,32,20.40
2016,07,22,11,33,20.40
2016,07,22,11,34,20.40
2016,07,22,11,35,20.50
2016,07,22,11,36,20.70
2016,07,22,11,37,20.70
2016,07,22,11,38,20.80
2016,07,22,11,39,20.70
2016,07,22,11,40,20.60
2016,07,22,11,41,20.60
2016,07,22,11,42,20.60
2016,07,22,11,43,20.70
2016,07,22,11,44,20.70
2016,07,22,11,45,20.70
2016,07,22,11,46,20.70
2016,07,22,11,47,20.70
2016,07,22,11,48,20.80
2016,07,22,11,49,20.80
2016,07,22,11,50,20.80
2016,07,22,11,51,20.80
2016,07,22,11,52,20.80
2016,07,22,11,53,20.80
2016,07,22,11,54,20.80
2016,07,22,11,55,20.80
2016,07,22,11,56,20.80
2016,07,22,11,57,20.80
2016,07,22,11,58,20.80
2016,07,22,11,59,20.80
2016,07,22,12,00,20.80
2016,07,22,12,01,20.80
2016,07,22,12,02,20.80
2016,07,22,12,03,20.90
2016,07,22,12,04,20.90
2016,07,22,12,05,21.00
2016,07,22,12,06,21.00
2016,07,22,12,07,21.00
2016,07,22,12,08,21.00
2016,07,22,12,09,21.00
2016,07,22,12,10,20.90
2016,07,22,12,11,20.90
2016,07,22,12,12,20.80
2016,07,22,12,13,20.80
2016,07,22,12,14,20.80
2016,07,22,12,15,20.80
2016,07,22,12,16,20.90
2016,07,22,12,17,21.00
2016,07,22,12,18,21.10
2016,07,22,12,19,21.20
2016,07,22,12,20,21.20
2016,07,22,12,21,21.20
2016,07,22,12,22,21.20
2016,07,22,12,23,21.30
2016,07,22,12,24,21.30
2016,07,22,12,25,21.30
2016,07,22,12,26,21.30
2016,07,22,12,27,21.30
2016,07,22,12,28,21.40
2016,07,22,12,29,21.40
2016,07,22,12,30,21.40
2016,07,22,12,31,21.40
2016,07,22,12,32,21.40
2016,07,22,12,33,21.40
2016,07,22,12,34,21.50
2016,07,22,12,35,21.50
2016,07,22,12,36,21.60
2016,07,22,12,37,21.70
2016,07,22,12,38,21.80
2016,07,22,12,39,21.80
2016,07,22,12,40,21.80
2016,07,22,12,41,21.80
2016,07,22,12,42,21.80
2016,07,22,12,43,21.80
2016,07,22,12,44,21.70
2016,07,22,12,45,21.60
2016,07,22,12,46,21.50
2016,07,22,12,47,21.50
2016,07,22,12,48,21.50
2016,07,22,12,49,21.50
2016,07,22,12,50,21.60
2016,07,22,12,51,21.70
2016,07,22,12,52,21.80
2016,07,22,12,53,21.90
2016,07,22,12,54,21.90
2016,07,22,12,55,22.00
2016,07,22,12,56,22.10
2016,07,22,12,57,22.00
2016,07,22,12,58,21.90
2016,07,22,12,59,21.90
2016,07,22,13,00,21.90
2016,07,22,13,01,22.00
2016,07,22,13,02,22.00
2016,07,22,13,03,22.00
2016,07,22,13,04,21.90
2016,07,22,13,05,21.90
2016,07,22,13,06,22.00
2016,07,22,13,07,22.10
2016,07,22,13,08,22.20
2016,07,22,13,09,22.30
2016,07,22,13,10,22.40
2016,07,22,13,11,22.50
2016,07,22,13,12,22.50
2016,07,22,13,13,22.30
2016,07,22,13,14,22.20
2016,07,22,13,15,22.20
2016,07,22,13,16,22.20
2016,07,22,13,17,22.20
2016,07,22,13,18,22.20
2016,07,22,13,19,22.20
2016,07,22,13,20,22.30
2016,07,22,13,21,22.20
2016,07,22,13,22,22.20
2016,07,22,13,23,22.20
2016,07,22,13,24,22.20
2016,07,22,13,25,22.10
2016,07,22,13,26,22.00
2016,07,22,13,27,21.90
2016,07,22,13,28,22.00
2016,07,22,13,29,22.10
2016,07,22,13,30,22.20
2016,07,22,13,31,22.30
2016,07,22,13,32,22.30
2016,07,22,13,33,22.30
2016,07,22,13,34,22.30
2016,07,22,13,35,22.30
2016,07,22,13,36,22.20
2016,07,22,13,37,22.10
2016,07,22,13,38,22.10
2016,07,22,13,39,22.10
2016,07,22,13,40,22.10
2016,07,22,13,41,22.10
2016,07,22,13,42,22.10
2016,07,22,13,43,22.10
2016,07,22,13,44,22.20
2016,07,22,13,45,22.20
2016,07,22,13,46,22.20
2016,07,22,13,47,22.20
2016,07,22,13,48,22.30
2016,07,22,13,49,22.30
2016,07,22,13,50,22.20
2016,07,22,13,51,22.20
2016,07,22,13,52,22.20
2016,07,22,13,53,22.10
2016,07,22,13,54,22.10
2016,07,22,13,55,22.10
2016,07,22,13,56,22.10
2016,07,22,13,57,22.00
2016,07,22,13,58,22.00
2016,07,22,13,59,22.10
2016,07,22,14,00,22.10
2016,07,22,14,01,22.20
2016,07,22,14,02,22.30
2016,07,22,14,03,22.40
2016,07,22,14,04,22.50
2016,07,22,14,05,22.50
2016,07,22,14,06,22.50
2016,07,22,14,07,22.50
2016,07,22,14,08,22.50
2016,07,22,14,09,22.40
2016,07,22,14,10,22.40
2016,07,22,14,11,22.40
2016,07,22,14,12,22.40
2016,07,22,14,13,22.40
2016,07,22,14,14,22.40
2016,07,22,14,15,22.50
2016,07,22,14,16,22.50
2016,07,22,14,17,22.60
2016,07,22,14,18,22.70
2016,07,22,14,19,22.80
2016,07,22,14,20,22.80
2016,07,22,14,21,22.80
2016,07,22,14,22,22.70
2016,07,22,14,23,22.70
2016,07,22,14,24,22.70
2016,07,22,14,25,22.60
2016,07,22,14,26,22.50
2016,07,22,14,27,22.30
2016,07,22,14,28,22.20
2016,07,22,14,29,22.20
2016,07,22,14,30,22.30
2016,07,22,14,31,22.30
2016,07,22,14,32,22.30
2016,07,22,14,33,22.40
2016,07,22,14,34,22.40
2016,07,22,14,35,22.40
2016,07,22,14,36,22.40
2016,07,22,14,37,22.40
2016,07,22,14,38,22.40
2016,07,22,14,39,22.30
2016,07,22,14,40,22.20
2016,07,22,14,41,22.20
2016,07,22,14,42,22.20
2016,07,22,14,43,22.20
2016,07,22,14,44,22.30
2016,07,22,14,45,22.40
2016,07,22,14,46,22.60
2016,07,22,14,47,22.60
2016,07,22,14,48,22.60
2016,07,22,14,49,22.60
2016,07,22,14,50,22.60
2016,07,22,14,51,22.50
2016,07,22,14,52,22.50
2016,07,22,14,53,22.50
2016,07,22,14,54,22.40
2016,07,22,14,55,22.40
2016,07,22,14,56,22.20
2016,07,22,14,57,22.20
2016,07,22,14,58,22.20
2016,07,22,14,59,22.20
2016,07,22,15,00,22.30
2016,07,22,15,01,22.40
2016,07,22,15,02,22.40
2016,07,22,15,03,22.40
2016,07,22,15,04,22.40
2016,07,22,15,05,22.30
2016,07,22,15,06,22.30
2016,07,22,15,07,22.30
2016,07,22,15,08,22.40
2016,07,22,15,09,22.40
2016,07,22,15,10,22.40
2016,07,22,15,11,22.40
2016,07,22,15,12,22.50
2016,07,22,15,13,22.50
2016,07,22,15,14,22.40
2016,07,22,15,15,22.40
2016,07,22,15,16,22.50
2016,07,22,15,17,22.60
2016,07,22,15,18,22.60
2016,07,22,15,19,22.60
2016,07,22,15,20,22.60
2016,07,22,15,21,22.60
2016,07,22,15,22,22.60
2016,07,22,15,23,22.60
2016,07,22,15,24,22.50
2016,07,22,15,25,22.40
2016,07,22,15,26,22.30
2016,07,22,15,27,22.20
2016,07,22,15,28,22.30
2016,07,22,15,29,22.30
2016,07,22,15,30,22.20
2016,07,22,15,31,22.20
2016,07,22,15,32,22.10
2016,07,22,15,33,22.00
2016,07,22,15,34,21.90
2016,07,22,15,35,21.90
2016,07,22,15,36,21.80
2016,07,22,15,37,21.80
2016,07,22,15,38,21.80
2016,07,22,15,39,21.80
2016,07,22,15,40,21.90
2016,07,22,15,41,21.90
2016,07,22,15,42,21.90
2016,07,22,15,43,22.00
2016,07,22,15,44,22.00
2016,07,22,15,45,22.00
2016,07,22,15,46,22.00
2016,07,22,15,47,21.90
2016,07,22,15,48,22.00
2016,07,22,15,49,22.00
2016,07,22,15,50,22.10
2016,07,22,15,51,22.10
2016,07,22,15,52,22.10
2016,07,22,15,53,22.20
2016,07,22,15,54,22.20
2016,07,22,15,55,22.20
2016,07,22,15,56,22.30
2016,07,22,15,57,22.50
2016,07,22,15,58,22.60
2016,07,22,15,59,22.70
2016,07,22,16,00,22.80
2016,07,22,16,01,22.80
2016,07,22,16,02,22.80
2016,07,22,16,03,22.80
2016,07,22,16,04,22.80
2016,07,22,16,05,22.90
2016,07,22,16,06,22.90
2016,07,22,16,07,22.90
2016,07,22,16,08,23.00
2016,07,22,16,09,23.10
2016,07,22,16,10,23.20
2016,07,22,16,11,23.20
2016,07,22,16,12,23.20
2016,07,22,16,13,23.20
2016,07,22,16,14,23.20
2016,07,22,16,15,23.30
2016,07,22,16,16,23.20
2016,07,22,16,17,23.10
2016,07,22,16,18,23.10
2016,07,22,16,19,23.10
2016,07,22,16,20,23.00
2016,07,22,16,21,23.00
2016,07,22,16,22,22.90
2016,07,22,16,23,22.90
2016,07,22,16,24,22.90
2016,07,22,16,25,22.90
2016,07,22,16,26,22.90
2016,07,22,16,27,22.80
2016,07,22,16,28,22.90
2016,07,22,16,29,22.90
2016,07,22,16,30,22.90
2016,07,22,16,31,22.90
2016,07,22,16,32,22.90
2016,07,22,16,33,22.80
2016,07,22,16,34,22.90
2016,07,22,16,35,22.90
2016,07,22,16,36,22.90
2016,07,22,16,37,22.90
2016,07,22,16,38,22.90
2016,07,22,16,39,22.90
2016,07,22,16,40,22.90
2016,07,22,16,41,22.80
2016,07,22,16,42,22.80
2016,07,22,16,43,22.70
2016,07,22,16,44,22.70
2016,07,22,16,45,22.70
2016,07,22,16,46,22.80
2016,07,22,16,47,22.80
2016,07,22,16,48,22.90
2016,07,22,16,49,22.90
2016,07,22,16,50,22.90
2016,07,22,16,51,22.80
2016,07,22,16,52,22.80
2016,07,22,16,53,22.80
2016,07,22,16,54,22.70
2016,07,22,16,55,22.70
2016,07,22,16,56,22.70
2016,07,22,16,57,22.60
2016,07,22,16,58,22.60
2016,07,22,16,59,22.60
2016,07,22,17,00,22.60
2016,07,22,17,01,22.50
2016,07,22,17,02,22.50
2016,07,22,17,03,22.40
2016,07,22,17,04,22.40
2016,07,22,17,05,22.30
2016,07,22,17,06,22.30
2016,07,22,17,07,22.30
2016,07,22,17,08,22.30
2016,07,22,17,09,22.30
2016,07,22,17,10,22.40
2016,07,22,17,11,22.40
2016,07,22,17,12,22.40
2016,07,22,17,13,22.40
2016,07,22,17,14,22.30
2016,07,22,17,15,22.20
2016,07,22,17,16,22.00
2016,07,22,17,17,21.90
2016,07,22,17,18,21.80
2016,07,22,17,19,21.80
2016,07,22,17,20,21.80
2016,07,22,17,21,21.80
2016,07,22,17,22,21.80
2016,07,22,17,23,21.80
2016,07,22,17,24,21.80
2016,07,22,17,25,21.90
2016,07,22,17,26,21.90
2016,07,22,17,27,22.00
2016,07,22,17,28,22.00
2016,07,22,17,29,22.00
2016,07,22,17,30,22.00
2016,07,22,17,31,22.10
2016,07,22,17,32,22.10
2016,07,22,17,33,22.10
2016,07,22,17,34,22.10
2016,07,22,17,35,22.10
2016,07,22,17,36,22.10
2016,07,22,17,37,22.00
2016,07,22,17,38,21.90
2016,07,22,17,39,21.80
2016,07,22,17,40,21.80
2016,07,22,17,41,21.80
2016,07,22,17,42,21.80
2016,07,22,17,43,21.70
2016,07,22,17,44,21.70
2016,07,22,17,45,21.70
2016,07,22,17,46,21.70
2016,07,22,17,47,21.70
2016,07,22,17,48,21.70
2016,07,22,17,49,21.80
2016,07,22,17,50,21.80
2016,07,22,17,51,21.80
2016,07,22,17,52,21.90
2016,07,22,17,53,21.90
2016,07,22,17,54,22.00
2016,07,22,17,55,22.00
2016,07,22,17,56,22.00
2016,07,22,17,57,22.10
2016,07,22,17,58,22.10
2016,07,22,17,59,22.20
2016,07,22,18,00,22.20
2016,07,22,18,01,22.10
2016,07,22,18,02,22.10
2016,07,22,18,03,22.00
2016,07,22,18,04,21.90
2016,07,22,18,05,21.90
2016,07,22,18,06,21.80
2016,07,22,18,07,21.80
2016,07,22,18,08,21.80
2016,07,22,18,09,21.80
2016,07,22,18,10,21.70
2016,07,22,18,11,21.70
2016,07,22,18,12,21.70
2016,07,22,18,13,21.60
2016,07,22,18,14,21.60
2016,07,22,18,15,21.50
2016,07,22,18,16,21.50
2016,07,22,18,17,21.40
2016,07,22,18,18,21.50
2016,07,22,18,19,21.60